Regional Weather Roundup
Issued by NWS

Home | Current Version | Previous Version | Text Only | Print | Product List | Glossary On
Versions: 1 2 3 4 5 6 7 8 9 10 11 12 13 14 15 16 17 18 19 20 21 22 23 24 25 26 27 28 29 30 31 32 33 34 35 36 37 38 39 40 41 42 43 44 45 46 47 48 49 50
000
ASUS45 KCYS 111610
RWRWY

WYOMING REGIONAL WEATHER ROUNDUP
NATIONAL WEATHER SERVICE CHEYENNE WY
1000 AM MDT FRI JUL 11 2014

NOTE:  "FAIR" INDICATES FEW OR NO CLOUDS BELOW 12,000 FEET
WITH NO SIGNIFICANT WEATHER AND/OR OBSTRUCTIONS TO VISIBILITY.

WYZ001-111700-
YELLOWSTONE NATIONAL PARK

CITY           SKY/WX    TMP DP  RH WIND       PRES   REMARKS
LK YELLOWSTONE   N/A     61  49  64 E3        30.35S
W YELLOWSTONE  NOT AVBL

$$
WYZ002>013-054>058-071-098>099-111700-
NORTHERN WYOMING

CITY           SKY/WX    TMP DP  RH WIND       PRES   REMARKS
JACKSON        NOT AVBL
CODY           SUNNY    N/A N/A N/A N17       30.15R
GREYBULL       SUNNY     82  52  35 NW14      30.05R
WORLAND        MOSUNNY   78  54  43 SW5       30.05S
SHERIDAN       SUNNY     77  56  48 N12       30.09R
BUFFALO        SUNNY     80  56  43 N15G28    30.12R
GILLETTE       MOSUNNY   82  58  43 SE7       30.06S
HULETT         FAIR      77  63  61 MISG      30.09
NEWCASTLE      FAIR      81  54  39 MISG      30.07

$$
WYZ014>020-022>026-101>103-111700-
CENTRAL WYOMING

CITY           SKY/WX    TMP DP  RH WIND       PRES   REMARKS
BIG PINEY      CLOUDY    65  53  65 CALM      30.29R
PINEDALE       PTSUNNY   63  52  67 CALM      30.29S
DUBOIS         FAIR      70  46  43 NW7       30.25S
LANDER         CLOUDY    76  53  44 NW6       30.14R
RIVERTON       CLOUDY    74  53  48 E3        30.15S
CASPER         PTSUNNY   76  55  48 SW14      30.14R
DOUGLAS        PTSUNNY   73  60  63 NW3       30.12R

$$
WYZ021-027>030-104>119-111700-
SOUTHERN WYOMING

CITY           SKY/WX    TMP DP  RH WIND       PRES   REMARKS
EVANSTON       CLOUDY    60  54  80 E3        30.28S
KEMMERER       LGT RAIN  59  52  77 CALM      30.30S
FORT BRIDGER   CLOUDY    63  57  81 S6        30.31R
ROCK SPRINGS   CLOUDY    67  53  61 W6        30.26S
DIXON          CLOUDY    71  54  55 SE5       30.27F
RAWLINS        CLOUDY    67  53  61 SW8       30.27R
SARATOGA       PTSUNNY   66  54  63 N6        30.29S
LARAMIE        SUNNY     70  52  52 MISG      30.28R
CHEYENNE       SUNNY     77  52  41 CALM      30.20S
TORRINGTON     PTSUNNY   73  63  70 CALM      30.06S

$$


USA.gov is the U.S. government's official web portal to all federal, state and local government web resources and services.